Location: Black Swamp Observatory
(41.3920°N, 84.1250°W)
Time: 00:50:43
(UTC-04:00)

Amateur Radio Satellites - All Passes

Search period start: 26 April 2015 00:20
Search period end: 27 April 2015 00:20
Location: Black Swamp Observatory, 41.3920°N, 84.1250°W

Satellite Date Start Highest point End Downlink Frequencies (MHz)
Time Altitude Azimuth
FUNcube-1 26 Apr 00:23:14 00:24:06 10° 274° (W) 00:24:39 145.935
UKube-1 26 Apr 00:26:32 00:29:01 14° 270° (W) 00:31:18 .
YUBILEINY 26 Apr 00:29:31 00:37:05 33° 275° (W) 00:44:23 435.215
NANOSAT C BR1 26 Apr 00:32:55 00:37:09 56° 100° (E) 00:41:23 145.865
TIGRISAT 26 Apr 00:33:00 00:37:44 72° 284° (WNW) 00:42:22 435.000
POPSAT HIP 1 26 Apr 00:36:09 00:40:26 62° 101° (E) 00:44:41 437.405
UNISAT 6 26 Apr 00:37:25 00:42:06 63° 286° (WNW) 00:46:42 437.425
SPROUT 26 Apr 00:38:04 00:42:08 46° 73° (ENE) 00:46:16 437.525
HUMSAT D 26 Apr 00:41:25 00:43:15 12° 272° (W) 00:44:54 437.325/437.525
VELOX 1 26 Apr 00:50:56 00:53:52 17° 269° (W) 00:56:39 145.980
SWISSCUBE 26 Apr 00:52:30 00:53:46 11° 61° (ENE) 00:55:19 437.505
CUBEBUG 1 26 Apr 00:54:39 00:58:28 30° 264° (W) 01:02:16 437.445
BUGSAT 1 26 Apr 01:00:01 01:04:11 80° 102° (ESE) 01:08:23 437.445
Cosmos 2504 26 Apr 01:02:25 01:10:05 46° 73° (ENE) 01:17:17 435.465 / 435.565
POLYITAN 1 26 Apr 01:06:02 01:10:18 59° 286° (WNW) 01:14:32 437.675
DUCHIFAT 1 26 Apr 01:06:51 01:11:05 60° 286° (WNW) 01:15:19 145.980
AISAT 26 Apr 01:11:29 01:12:07 10° 273° (W) 01:12:28 437.250
ANTELSAT 26 Apr 01:20:10 01:24:00 24° 293° (WNW) 01:27:42 437.575/2403.000
QB50P1 26 Apr 01:24:40 01:28:39 37° 289° (WNW) 01:32:37 145.935-145.965
AIST 1 26 Apr 01:31:24 01:35:40 64° 96° (E) 01:39:55
TISAT 1 26 Apr 01:42:47 01:46:44 40° 262° (W) 01:50:42 437.305
RS-15 26 Apr 01:43:53 01:54:51 49° 248° (WSW) 02:06:03 29.354- 29.394
QB50P2 26 Apr 01:51:30 01:54:42 20° 293° (WNW) 01:57:49 145.880/145.840
ITUPSAT 1 26 Apr 01:53:22 01:57:48 39° 70° (ENE) 02:02:17 437.325
NANOSAT C BR1 26 Apr 02:10:18 02:12:35 14° 295° (WNW) 02:14:42 145.865
POPSAT HIP 1 26 Apr 02:13:48 02:15:51 13° 296° (WNW) 02:17:42 437.405
SPROUT 26 Apr 02:15:55 02:18:32 15° 270° (W) 02:20:59 437.525
KKS-1 26 Apr 02:17:43 02:19:41 13° 63° (ENE) 02:21:51 437.445
Cosmos 2491 26 Apr 02:20:03 02:24:56 15° 304° (NW) 02:29:17 435.465 / 435.565
BEESAT 26 Apr 02:23:39 02:28:26 81° 75° (ENE) 02:33:15 436.000
SWISSCUBE 26 Apr 02:26:12 02:31:00 88° 261° (W) 02:35:50 437.505
Oscar 19 26 Apr 02:27:19 02:31:51 31° 95° (E) 02:36:28 437.125/150
GONETS M04 26 Apr 02:55:52 03:01:31 19° 59° (ENE) 03:07:34
Cosmos 2504 26 Apr 02:56:15 03:03:17 34° 274° (W) 03:09:46 435.465 / 435.565
ITAMSAT 1 26 Apr 03:03:07 03:06:48 20° 92° (E) 03:10:40 435.822/435.867
BEESAT 3 26 Apr 03:04:22 03:07:57 31° 115° (ESE) 03:11:38 437.485
BEESAT 2 26 Apr 03:06:17 03:09:43 27° 114° (ESE) 03:13:16 435.950
STARS 26 Apr 03:09:42 03:13:24 28° 69° (ENE) 03:17:12 437.465
DANDE 26 Apr 03:11:58 03:13:56 11° 57° (ENE) 03:16:35 436.750
AIST 1 26 Apr 03:12:34 03:13:53 11° 294° (WNW) 03:14:57
ITUPSAT 1 26 Apr 03:32:05 03:35:52 22° 267° (W) 03:39:32 437.325
Gurwin Techsat 1B 26 Apr 03:33:47 03:38:35 35° 96° (E) 03:43:26 435.225
KKS-1 26 Apr 03:51:26 03:55:50 65° 259° (W) 04:00:17 437.445
BEESAT 26 Apr 04:06:08 04:06:59 10° 273° (W) 04:07:30 436.000
Oscar 19 26 Apr 04:06:34 04:11:13 33° 292° (WNW) 04:15:48 437.125/150
AIST 2 26 Apr 04:08:06 04:12:03 39° 117° (ESE) 04:16:05 435.215
CUSAT 1 26 Apr 04:10:15 04:17:09 38° 71° (ENE) 04:24:47 437.405
MOZHAYETS 4 26 Apr 04:21:59 04:25:07 19° 66° (ENE) 04:28:23
HORYU 2 26 Apr 04:28:07 04:31:34 22° 93° (E) 04:35:05 437.375
ITAMSAT 1 26 Apr 04:41:39 04:46:38 49° 289° (WNW) 04:51:37 435.822/435.867
BEESAT 3 26 Apr 04:42:27 04:45:59 27° 313° (NW) 04:49:31 437.485
BEESAT 2 26 Apr 04:44:05 04:47:46 30° 311° (NW) 04:51:28 435.950
STARS 26 Apr 04:46:06 04:49:50 26° 265° (W) 04:53:33 437.465
GONETS M04 26 Apr 04:51:00 04:59:56 87° 82° (E) 05:08:46
DANDE 26 Apr 04:51:23 04:58:41 56° 76° (ENE) 05:07:05 436.750
AO-7 26 Apr 05:05:37 05:13:15 40° 98° (E) 05:21:00 29.400- 29.500
Gurwin Techsat 1B 26 Apr 05:13:53 05:18:30 30° 293° (WNW) 05:23:03 435.225
M-CUBED/EXP-1 PRIME 26 Apr 05:16:51 05:18:41 12° 56° (ENE) 05:20:44 437.505
Cosmos 2499 26 Apr 05:23:19 05:29:22 25° 65° (ENE) 05:35:18 435.465 / 435.565
JAS-2 26 Apr 05:37:52 05:44:14 69° 101° (E) 05:49:50 435.910
AIST 2 26 Apr 05:47:16 05:50:48 24° 315° (NW) 05:54:17 435.215
CUSAT 1 26 Apr 05:52:42 06:00:05 51° 266° (W) 06:08:02 437.405
AUBIESAT-1 26 Apr 05:56:33 06:00:24 25° 63° (ENE) 06:04:20 437.475
MOZHAYETS 4 26 Apr 05:57:33 06:02:02 47° 262° (W) 06:06:31
CUBESAT XI-V 26 Apr 06:00:05 06:02:44 16° 65° (ENE) 06:05:35 437.345
HORYU 2 26 Apr 06:04:12 06:08:20 35° 290° (WNW) 06:12:23 437.375
STRAND 1 26 Apr 06:16:54 06:19:17 14° 61° (ENE) 06:21:54 437.568
PRISM 26 Apr 06:22:10 06:24:31 15° 65° (ENE) 06:27:01 437.425
DANDE 26 Apr 06:35:07 06:41:48 33° 270° (W) 06:49:02 436.750
M-CUBED/EXP-1 PRIME 26 Apr 06:48:04 06:52:53 88° 69° (ENE) 06:57:45 437.505
GONETS M04 26 Apr 06:49:53 06:55:44 19° 281° (W) 07:01:05
AO-7 26 Apr 06:58:19 07:06:12 48° 296° (WNW) 07:14:01 29.400- 29.500
Cosmos 2499 26 Apr 07:15:37 07:23:18 63° 267° (W) 07:30:24 435.465 / 435.565
JAS-2 26 Apr 07:24:12 07:28:37 19° 301° (WNW) 07:32:30 435.910
AUBIESAT-1 26 Apr 07:30:28 07:34:58 40° 258° (WSW) 07:39:28 437.475
CUTE-I 26 Apr 07:34:23 07:39:28 44° 98° (E) 07:44:33 437.470
CUBESAT XI-V 26 Apr 07:35:14 07:39:48 56° 260° (W) 07:44:21 437.345
Cubesat XI-IV 26 Apr 07:44:05 07:49:18 55° 100° (E) 07:54:32 437.490
STRAND 1 26 Apr 07:52:47 07:57:54 79° 256° (WSW) 08:03:03 437.568
PRISM 26 Apr 07:55:36 07:59:39 47° 260° (W) 08:03:41 437.425
M-CUBED/EXP-1 PRIME 26 Apr 08:27:14 08:28:25 11° 269° (W) 08:29:15 437.505
Cosmos 2491 26 Apr 08:35:06 08:36:52 11° 51° (NE) 08:39:21 435.465 / 435.565
O/OREOS (USA 219) 26 Apr 08:46:08 08:50:33 55° 64° (ENE) 08:54:56 437.305
GOMX 1 26 Apr 08:50:40 08:53:02 13° 88° (E) 08:55:44 467.674
AO-7 26 Apr 08:55:00 08:57:08 11° 317° (NW) 08:58:48 29.400- 29.500
BRITE-PL 26 Apr 09:04:20 09:08:41 28° 94° (E) 09:13:22 437.365/2234.400
PCSat 26 Apr 09:13:47 09:19:11 78° 118° (ESE) 09:24:38 145.827
CUTE-I 26 Apr 09:15:02 09:19:19 25° 295° (WNW) 09:23:29 437.470
DOVE 4 26 Apr 09:23:38 09:27:12 19° 90° (E) 09:31:01 437.250
Cubesat XI-IV 26 Apr 09:25:10 09:29:03 20° 296° (WNW) 09:32:46 437.490
SEEDS 26 Apr 09:28:18 09:30:35 15° 90° (E) 09:33:04 437.485
CANX-2 26 Apr 09:36:47 09:40:16 24° 94° (E) 09:43:49 2200.000
AAUSAT CUBESAT 2 26 Apr 09:43:59 09:46:20 15° 90° (E) 09:48:51 437.432
YUBILEINY 26 Apr 09:45:15 09:45:53 10° 74° (ENE) 09:47:21 435.215
CUTE 1.7 + AOD 2 26 Apr 09:45:42 09:49:22 28° 95° (E) 09:53:03 437.475
TIGRISAT 26 Apr 09:58:37 09:59:54 11° 62° (ENE) 10:01:26 435.000
HO-68 26 Apr 10:01:04 10:07:59 49° 99° (E) 10:14:54 435.675
CUBEBUG 2 26 Apr 10:01:13 10:02:08 11° 86° (E) 10:03:23 437.445
UNISAT 6 26 Apr 10:02:28 10:04:25 13° 63° (ENE) 10:06:36 437.425
CINEMA 3 26 Apr 10:03:29 10:07:26 24° 92° (E) 10:11:31 145.822/145.860
UWE-3 26 Apr 10:24:31 10:27:17 16° 89° (E) 10:30:13 435.000/436.395/437.385
GOMX 1 26 Apr 10:26:33 10:31:42 77° 285° (WNW) 10:37:07 467.674
O/OREOS (USA 219) 26 Apr 10:27:10 10:29:33 14° 260° (W) 10:31:42 437.305
POLYITAN 1 26 Apr 10:27:37 10:27:45 10° 62° (ENE) 10:28:07 437.675
Cosmos 2491 26 Apr 10:27:37 10:36:18 58° 76° (ENE) 10:44:59 435.465 / 435.565
FUNcube-1 26 Apr 10:32:41 10:35:08 15° 89° (E) 10:37:47 145.935
COMPASS 1 26 Apr 10:35:59 10:40:12 70° 101° (E) 10:44:22 437.405
ANTELSAT 26 Apr 10:42:11 10:46:11 32° 69° (ENE) 10:50:19 437.575/2403.000
BRITE-PL 26 Apr 10:42:32 10:47:15 38° 289° (WNW) 10:52:12 437.365/2234.400
QB50P1 26 Apr 10:43:24 10:45:45 15° 65° (ENE) 10:48:17 145.935-145.965
DELFI C3 26 Apr 10:49:48 10:53:16 27° 95° (E) 10:56:45 145.870
Oscar 11 26 Apr 10:54:56 10:59:06 44° 98° (E) 11:03:14 145.826/435.025
ZACube-1 26 Apr 10:57:14 11:01:09 27° 94° (E) 11:05:04 437.345
PCSat 26 Apr 10:59:25 11:03:18 19° 318° (NW) 11:07:03 145.827
DOVE 4 26 Apr 11:00:16 11:05:15 53° 287° (WNW) 11:10:23 437.250
SEEDS 26 Apr 11:02:38 11:06:44 47° 287° (WNW) 11:10:46 437.485
QB50P2 26 Apr 11:08:20 11:11:55 28° 70° (ENE) 11:15:35 145.880/145.840
CANX-2 26 Apr 11:12:29 11:16:13 28° 290° (WNW) 11:19:50 2200.000
AAUSAT CUBESAT 2 26 Apr 11:18:15 11:22:15 44° 287° (WNW) 11:26:12 437.432
SO-50 26 Apr 11:21:23 11:24:17 17° 110° (ESE) 11:27:26 436.795
CUTE 1.7 + AOD 2 26 Apr 11:21:39 11:25:13 25° 291° (WNW) 11:28:41 437.475
AISAT 26 Apr 11:22:52 11:25:03 14° 90° (E) 11:27:27 437.250
BEESAT 3 26 Apr 11:23:07 11:26:21 22° 45° (NE) 11:29:37 437.485
BEESAT 2 26 Apr 11:25:27 11:28:32 20° 44° (NE) 11:31:41 435.950
NANOSAT C BR1 26 Apr 11:25:36 11:29:32 41° 72° (ENE) 11:33:33 145.865
POPSAT HIP 1 26 Apr 11:29:01 11:33:02 46° 73° (ENE) 11:37:07 437.405
DX 1 26 Apr 11:29:45 11:33:42 33° 97° (E) 11:37:41 434.975-435.025
TIGRISAT 26 Apr 11:31:29 11:36:00 82° 258° (WSW) 11:40:40 435.000
YUBILEINY 26 Apr 11:32:30 11:41:07 63° 92° (E) 11:49:48 435.215
50 SAT 26 Apr 11:33:55 11:36:40 18° 92° (E) 11:39:30 437.505
CUBEBUG 2 26 Apr 11:34:42 11:39:31 80° 283° (WNW) 11:44:16 437.445
UNISAT 6 26 Apr 11:36:07 11:40:39 71° 259° (W) 11:45:18 437.425
AIST 1 26 Apr 11:39:34 11:42:10 16° 69° (ENE) 11:44:56
CINEMA 3 26 Apr 11:40:05 11:44:46 40° 289° (WNW) 11:49:27 145.822/145.860
HO-68 26 Apr 11:49:11 11:55:31 34° 297° (WNW) 12:01:43 435.675
BUGSAT 1 26 Apr 11:50:12 11:54:06 54° 74° (ENE) 11:58:03 437.445
POLYITAN 1 26 Apr 11:58:52 12:03:05 79° 257° (WSW) 12:07:22 437.675
DUCHIFAT 1 26 Apr 11:59:03 12:03:15 82° 256° (WSW) 12:07:29 145.980
UWE-3 26 Apr 11:59:35 12:04:12 54° 286° (WNW) 12:08:44 435.000/436.395/437.385
ESTCUBE 1 26 Apr 12:03:15 12:06:33 20° 92° (E) 12:09:56 437.505/2401.250
FUNcube-1 26 Apr 12:07:22 12:11:53 55° 286° (WNW) 12:16:21 145.935
GOMX 1 26 Apr 12:08:04 12:09:10 10° 299° (WNW) 12:09:58 467.674
UKube-1 26 Apr 12:11:37 12:15:59 88° 284° (WNW) 12:20:19 .
COMPASS 1 26 Apr 12:14:06 12:15:22 11° 297° (WNW) 12:16:25 437.405
QB50P1 26 Apr 12:17:11 12:21:16 49° 261° (W) 12:25:23 145.935-145.965
ANTELSAT 26 Apr 12:19:12 12:23:00 25° 267° (W) 12:26:50 437.575/2403.000
HUMSAT D 26 Apr 12:22:31 12:26:52 75° 284° (WNW) 12:31:10 437.325/437.525
DELFI C3 26 Apr 12:25:04 12:28:18 23° 291° (WNW) 12:31:26 145.870
Cosmos 2491 26 Apr 12:25:14 12:32:46 31° 275° (W) 12:40:02 435.465 / 435.565
ISS 26 Apr 12:29:28 12:32:36 48° 140° (SE) 12:35:46 145.825
AIST 2 26 Apr 12:29:52 12:33:33 28° 47° (NE) 12:37:14 435.215
Oscar 11 26 Apr 12:32:02 12:34:58 17° 294° (WNW) 12:37:46 145.826/435.025
ZACube-1 26 Apr 12:33:26 12:37:29 30° 291° (WNW) 12:41:27 437.345
VELOX 1 26 Apr 12:39:24 12:43:52 90° 37° (NE) 12:48:20 145.980
CUBEBUG 1 26 Apr 12:42:47 12:47:00 47° 99° (E) 12:51:14 437.445
QB50P2 26 Apr 12:44:20 12:47:49 24° 266° (W) 12:51:17 145.880/145.840
AISAT 26 Apr 12:57:40 13:02:03 56° 287° (WNW) 13:06:26 437.250
SO-50 26 Apr 12:59:48 13:04:24 57° 307° (NW) 13:09:10 436.795
BEESAT 3 26 Apr 13:00:41 13:04:31 38° 244° (WSW) 13:08:16 437.485
NANOSAT C BR1 26 Apr 13:02:54 13:05:38 16° 269° (W) 13:08:14 145.865
BEESAT 2 26 Apr 13:02:57 13:06:53 44° 243° (WSW) 13:10:45 435.950
DX 1 26 Apr 13:06:21 13:09:48 23° 293° (WNW) 13:13:09 434.975-435.025
POPSAT HIP 1 26 Apr 13:06:44 13:09:14 15° 270° (W) 13:11:34 437.405
50 SAT 26 Apr 13:07:55 13:11:37 35° 289° (WNW) 13:15:16 437.505
AIST 1 26 Apr 13:16:04 13:20:06 41° 267° (W) 13:24:06
TISAT 1 26 Apr 13:27:15 13:31:00 30° 96° (E) 13:34:46 437.305
BUGSAT 1 26 Apr 13:28:35 13:30:00 11° 271° (W) 13:31:13 437.445
YUBILEINY 26 Apr 13:31:05 13:38:38 30° 293° (WNW) 13:45:59 435.215
Cosmos 2504 26 Apr 13:39:22 13:47:24 41° 88° (E) 13:55:28 435.465 / 435.565
ESTCUBE 1 26 Apr 13:39:25 13:43:35 37° 289° (WNW) 13:47:42 437.505/2401.250
Oscar 19 26 Apr 13:44:06 13:48:58 45° 71° (ENE) 13:53:54 437.125/150
RS-15 26 Apr 13:57:15 14:05:50 30° 105° (ESE) 14:14:54 29.354- 29.394
SPROUT 26 Apr 14:00:20 14:04:42 88° 284° (WNW) 14:09:02 437.525
ISS 26 Apr 14:06:17 14:09:06 26° 337° (NNW) 14:11:56 145.825
AIST 2 26 Apr 14:08:24 14:12:08 30° 245° (WSW) 14:15:45 435.215
AO-7 26 Apr 14:18:19 14:21:18 13° 45° (NE) 14:24:43 29.400- 29.500
CUBEBUG 1 26 Apr 14:20:12 14:23:03 17° 294° (WNW) 14:25:44 437.445
ITAMSAT 1 26 Apr 14:20:59 14:25:29 32° 68° (ENE) 14:30:03 435.822/435.867
BEESAT 26 Apr 14:24:44 14:28:12 20° 92° (E) 14:31:48 436.000
SWISSCUBE 26 Apr 14:27:10 14:30:56 24° 93° (E) 14:34:47 437.505
SO-50 26 Apr 14:44:21 14:46:05 12° 329° (NNW) 14:47:40 436.795
Gurwin Techsat 1B 26 Apr 14:54:48 14:59:58 55° 72° (ENE) 15:05:11 435.225
TISAT 1 26 Apr 15:03:13 15:06:40 24° 292° (WNW) 15:10:03 437.305
Oscar 19 26 Apr 15:24:32 15:28:34 22° 268° (W) 15:32:30 437.125/150
HORYU 2 26 Apr 15:26:45 15:30:07 22° 67° (ENE) 15:33:37 437.375
ITUPSAT 1 26 Apr 15:31:15 15:36:03 86° 282° (WNW) 15:40:48 437.325
Cosmos 2504 26 Apr 15:32:18 15:40:47 46° 287° (WNW) 15:49:04 435.465 / 435.565
KKS-1 26 Apr 15:43:00 15:46:37 24° 94° (E) 15:50:17 437.445
ISS 26 Apr 15:44:30 15:46:18 14° 357° (N) 15:48:04 145.825
JAS-2 26 Apr 15:48:01 15:54:58 37° 66° (ENE) 16:01:47 435.910
GONETS M04 26 Apr 15:58:43 16:04:21 20° 80° (E) 16:10:29
ITAMSAT 1 26 Apr 16:00:20 16:04:58 32° 264° (W) 16:09:33 435.822/435.867
BEESAT 26 Apr 16:01:47 16:06:17 42° 289° (WNW) 16:10:43 436.000
AO-7 26 Apr 16:04:30 16:12:26 55° 65° (ENE) 16:20:28 29.400- 29.500
SWISSCUBE 26 Apr 16:04:33 16:08:55 36° 290° (WNW) 16:13:14 437.505
RS-15 26 Apr 16:06:23 16:17:17 75° 306° (NW) 16:28:27 29.354- 29.394
PCSat 26 Apr 16:20:16 16:22:25 12° 36° (NE) 16:24:46 145.827
STARS 26 Apr 16:34:55 16:39:18 54° 100° (E) 16:43:40 437.465
Gurwin Techsat 1B 26 Apr 16:36:38 16:40:22 19° 270° (W) 16:43:56 435.225
VERMONT LUNAR 26 Apr 16:57:35 17:00:20 24° 155° (SSE) 17:03:07 437.305
HORYU 2 26 Apr 17:02:24 17:06:34 37° 263° (W) 17:10:45 437.375
ITUPSAT 1 26 Apr 17:12:34 17:13:16 10° 300° (WNW) 17:13:41 437.325
KKS-1 26 Apr 17:19:17 17:23:18 32° 290° (WNW) 17:27:16 437.445
CUSAT 1 26 Apr 17:20:50 17:23:38 20° 85° (E) 17:27:09 437.405
ISS 26 Apr 17:21:06 17:23:34 20° 17° (NNE) 17:26:03 145.825
CUTE-I 26 Apr 17:21:51 17:22:19 10° 58° (ENE) 17:23:07 437.470
Cubesat XI-IV 26 Apr 17:29:59 17:32:07 13° 60° (ENE) 17:34:32 437.490
JAS-2 26 Apr 17:32:11 17:39:49 50° 262° (W) 17:47:10 435.910
PHONESAT 2.4 26 Apr 17:35:33 17:38:06 19° 151° (SSE) 17:40:42 2401.200-2431.200
GONETS M04 26 Apr 17:51:28 18:00:15 83° 278° (W) 18:09:09
MOZHAYETS 4 26 Apr 17:52:37 17:56:56 40° 97° (E) 18:01:14
AO-7 26 Apr 17:58:13 18:05:37 34° 264° (W) 18:12:53 29.400- 29.500
Cosmos 2499 26 Apr 18:00:08 18:06:12 22° 82° (E) 18:12:33 435.465 / 435.565
PCSat 26 Apr 18:01:41 18:07:04 62° 58° (ENE) 18:12:26 145.827
DANDE 26 Apr 18:05:53 18:09:07 44° 93° (E) 18:13:22 436.750
STARS 26 Apr 18:12:41 18:15:21 15° 296° (WNW) 18:17:52 437.465
RS-15 26 Apr 18:22:53 18:32:02 28° 335° (NNW) 18:41:15 29.354- 29.394
VERMONT LUNAR 26 Apr 18:34:09 18:37:30 65° 170° (S) 18:40:52 437.305
CUTE-I 26 Apr 18:56:18 19:01:35 74° 75° (ENE) 19:06:55 437.470
ISS 26 Apr 18:57:03 19:00:18 87° 27° (NNE) 19:03:34 145.825
CUSAT 1 26 Apr 19:02:45 19:06:07 28° 293° (WNW) 19:10:19 437.405
Cubesat XI-IV 26 Apr 19:06:12 19:11:32 90° 179° (S) 19:16:55 437.490
PHONESAT 2.4 26 Apr 19:12:25 19:15:56 56° 167° (SSE) 19:19:29 2401.200-2431.200
AUBIESAT-1 26 Apr 19:13:27 19:15:36 14° 94° (E) 19:17:48 437.475
MOZHAYETS 4 26 Apr 19:30:28 19:33:55 21° 293° (WNW) 19:37:15
CUBESAT XI-V 26 Apr 19:31:58 19:36:11 35° 96° (E) 19:40:25 437.345
PRISM 26 Apr 19:38:29 19:41:39 22° 94° (E) 19:44:54 437.425
PCSat 26 Apr 19:46:19 19:50:02 18° 254° (WSW) 19:53:33 145.827
Cosmos 2499 26 Apr 19:49:40 19:58:36 80° 279° (W) 20:07:15 435.465 / 435.565
SO-50 26 Apr 19:51:22 19:55:06 21° 41° (NE) 19:58:55 436.795
DANDE 26 Apr 19:51:33 19:53:11 12° 303° (WNW) 19:54:48 436.750
GONETS M04 26 Apr 19:53:08 19:58:49 17° 302° (WNW) 20:04:03
GOMX 1 26 Apr 20:00:47 20:02:04 11° 62° (ENE) 20:03:37 467.674
STRAND 1 26 Apr 20:03:31 20:08:08 34° 96° (E) 20:12:47 437.568
M-CUBED/EXP-1 PRIME 26 Apr 20:05:16 20:09:28 69° 106° (ESE) 20:13:16 437.505
VERMONT LUNAR 26 Apr 20:11:32 20:14:55 72° 188° (S) 20:18:17 437.305
BRITE-PL 26 Apr 20:16:29 20:19:53 25° 68° (ENE) 20:23:27 437.365/2234.400
SEEDS 26 Apr 20:21:49 20:23:15 12° 64° (ENE) 20:24:52 437.485
HO-68 26 Apr 20:29:49 20:36:14 38° 64° (ENE) 20:42:47 435.675
CANX-2 26 Apr 20:30:22 20:33:22 19° 67° (ENE) 20:36:30 2200.000
DOVE 4 26 Apr 20:30:36 20:33:12 16° 64° (ENE) 20:36:02 437.250
ISS 26 Apr 20:35:38 20:36:14 10° 230° (SW) 20:36:43 145.825
AAUSAT CUBESAT 2 26 Apr 20:36:20 20:37:42 12° 64° (ENE) 20:39:18 437.432
CUTE 1.7 + AOD 2 26 Apr 20:39:04 20:42:18 22° 68° (ENE) 20:45:38 437.475
CUTE-I 26 Apr 20:39:33 20:42:21 14° 272° (W) 20:44:50 437.470
RS-15 26 Apr 20:41:22 20:49:31 22° 10° (N) 20:58:03 29.354- 29.394
AUBIESAT-1 26 Apr 20:46:49 20:50:47 43° 294° (WNW) 20:54:24 437.475
PHONESAT 2.4 26 Apr 20:50:31 20:54:07 78° 183° (S) 20:57:42 2401.200-2431.200
Cubesat XI-IV 26 Apr 20:51:11 20:52:31 11° 274° (W) 20:53:27 437.490
CINEMA 3 26 Apr 21:06:07 21:09:15 20° 66° (ENE) 21:12:36 145.822/145.860
CUBESAT XI-V 26 Apr 21:09:46 21:13:28 24° 292° (WNW) 21:17:04 437.345
PRISM 26 Apr 21:13:34 21:17:10 29° 290° (WNW) 21:20:41 437.425
UWE-3 26 Apr 21:22:53 21:24:53 13° 63° (ENE) 21:27:06 435.000/436.395/437.385
COMPASS 1 26 Apr 21:27:09 21:31:13 47° 73° (ENE) 21:35:19 437.405
FUNcube-1 26 Apr 21:29:48 21:31:26 12° 63° (ENE) 21:33:17 145.935
SO-50 26 Apr 21:31:12 21:36:07 64° 240° (WSW) 21:40:58 436.795
GOMX 1 26 Apr 21:35:28 21:39:38 68° 259° (W) 21:44:03 467.674
DELFI C3 26 Apr 21:38:03 21:40:53 19° 68° (ENE) 21:43:49 145.870
Cosmos 2491 26 Apr 21:40:00 21:41:41 11° 75° (ENE) 21:44:08 435.465 / 435.565
M-CUBED/EXP-1 PRIME 26 Apr 21:42:07 21:43:43 12° 304° (NW) 21:45:05 437.505
STRAND 1 26 Apr 21:42:54 21:47:16 29° 293° (WNW) 21:51:34 437.568
YUBILEINY 26 Apr 21:43:05 21:50:29 31° 67° (ENE) 21:58:02 435.215
Cosmos 2499 26 Apr 21:47:38 21:53:19 17° 301° (WNW) 21:58:25 435.465 / 435.565
VERMONT LUNAR 26 Apr 21:49:09 21:52:10 29° 203° (SSW) 21:55:08 437.305
Oscar 11 26 Apr 21:49:48 21:53:43 35° 71° (ENE) 21:57:43 145.826/435.025
ZACube-1 26 Apr 21:53:47 21:57:05 22° 67° (ENE) 22:00:33 437.345
SEEDS 26 Apr 21:54:17 21:58:32 68° 258° (WSW) 22:02:50 437.485
BRITE-PL 26 Apr 21:54:54 21:58:25 26° 266° (W) 22:02:00 437.365/2234.400
CANX-2 26 Apr 22:05:02 22:09:04 38° 263° (W) 22:13:07 2200.000
DOVE 4 26 Apr 22:06:29 22:10:36 47° 262° (W) 22:14:56 437.250
AAUSAT CUBESAT 2 26 Apr 22:08:38 22:12:50 67° 259° (W) 22:17:04 437.432
CUTE 1.7 + AOD 2 26 Apr 22:14:07 22:18:03 34° 264° (W) 22:21:59 437.475
HO-68 26 Apr 22:17:05 22:23:54 44° 262° (W) 22:30:42 435.675
50 SAT 26 Apr 22:20:57 22:22:17 12° 64° (ENE) 22:23:51 437.505
AISAT 26 Apr 22:21:34 22:23:38 14° 64° (ENE) 22:25:54 437.250
DX 1 26 Apr 22:25:37 22:29:22 30° 69° (ENE) 22:33:10 434.975-435.025
PHONESAT 2.4 26 Apr 22:28:48 22:32:12 40° 200° (SSW) 22:35:34 2401.200-2431.200
CUBEBUG 2 26 Apr 22:32:51 22:37:14 86° 79° (E) 22:41:48 437.445
CINEMA 3 26 Apr 22:42:06 22:46:11 39° 263° (W) 22:50:28 145.822/145.860
RS-15 26 Apr 22:55:08 23:05:55 45° 41° (NE) 23:17:19 29.354- 29.394
UWE-3 26 Apr 22:56:33 23:00:53 64° 260° (W) 23:05:24 435.000/436.395/437.385
O/OREOS (USA 219) 26 Apr 22:58:07 23:02:39 65° 109° (ESE) 23:07:12 437.305
FUNcube-1 26 Apr 23:02:52 23:07:12 70° 258° (WSW) 23:11:41 145.935
ESTCUBE 1 26 Apr 23:03:23 23:06:37 20° 66° (ENE) 23:09:57 437.505/2401.250
COMPASS 1 26 Apr 23:04:45 23:07:13 15° 270° (W) 23:09:31 437.405
UKube-1 26 Apr 23:06:21 23:10:39 79° 76° (ENE) 23:14:59 .
DELFI C3 26 Apr 23:12:01 23:15:48 35° 263° (W) 23:19:34 145.870
HUMSAT D 26 Apr 23:14:05 23:18:18 77° 77° (ENE) 23:22:37 437.325/437.525
TIGRISAT 26 Apr 23:23:58 23:27:33 22° 92° (E) 23:31:13 435.000
Oscar 11 26 Apr 23:26:40 23:30:01 21° 267° (W) 23:33:18 145.826/435.025
Cosmos 2491 26 Apr 23:28:27 23:37:01 66° 93° (E) 23:45:42 435.465 / 435.565
UNISAT 6 26 Apr 23:28:39 23:32:30 25° 93° (E) 23:36:22 437.425
ZACube-1 26 Apr 23:29:15 23:33:15 35° 264° (W) 23:37:21 437.345
Cosmos 2504 26 Apr 23:34:39 23:37:46 13° 55° (NE) 23:41:20 435.465 / 435.565
VELOX 1 26 Apr 23:36:57 23:41:21 81° 76° (ENE) 23:45:46 145.980
CUBEBUG 1 26 Apr 23:39:05 23:43:06 39° 72° (ENE) 23:47:09 437.445
YUBILEINY 26 Apr 23:39:22 23:47:55 60° 268° (W) 23:56:21 435.215
DUCHIFAT 1 26 Apr 23:44:57 23:47:33 16° 91° (E) 23:50:20 145.980
POLYITAN 1 26 Apr 23:45:21 23:48:09 17° 91° (E) 23:51:05 437.675
50 SAT 26 Apr 23:52:41 23:56:38 60° 260° (W) 00:00:38 437.505
AISAT 26 Apr 23:55:25 23:59:46 61° 259° (W) 00:04:09 437.250
DX 1 27 Apr 00:02:05 00:05:39 24° 266° (W) 00:09:09 434.975-435.025
QB50P1 27 Apr 00:02:32 00:06:07 26° 95° (E) 00:09:45 145.935-145.965
PHONESAT 2.4 27 Apr 00:08:47 00:09:53 11° 214° (SW) 00:10:52 2401.200-2431.200
ANTELSAT 27 Apr 00:10:10 00:14:53 69° 101° (E) 00:19:31 437.575/2403.000
